Starlink 35704

operational
NORAD ID: 66221 Int'l Des: 2025-244 Owner: SPXS Country: US Constellation: starlink
NOTLE

Über Starlink 35704

Beschreibung wird geladen...

Live-Position

3D-Globus wird geladen...

Nächste Überflüge

Höhenverlauf

Altitude vs Time

uPlot chart will show altitude changes over time

Zweizeiliger Elementsatz

1 66221U 25244R 25351.12264335 .00014513 00000-0 37199-3 0 9992
2 66221 53.1612 255.1632 0000869 96.4218 263.6886 15.39630388 8995
Epoch: 17. Dez. 2025 • Age: 12 hours

Aktueller Status

Höhe 466.1 km
Geschwindigkeit 7.63 km/s
Subsatellitenpunkt -52.95°S, 157.9°W
Startdatum 28. Okt. 2025
Alter 0.1 years
Typ internet

Technische Details

Klassifizierung Payload
Masse 575.00 kg
Trockenmasse 530.00 kg
Gesamtmasse 575.00 kg
Länge 0.30 m
Durchmesser 4.10 m
Spannweite 29.00 m
Form Box + pan
Hersteller SPXS
Bus-Typ Starlink V2MO
Phasenstatus In Orbit
Besitzer/Staat SPXS/US

Große Konstellationen

Loading constellations...